GW0203 Weather Reports


time (UTC)temp
F
wind
direction
speed
knots
gust
knots
rain 1hr
in
rain 24hr
in
rain mn
in
humidity
%
barometer
mb
20260508120035 50 249 0.9 6.1 0.00 0.00 0.00 55 1009.9
20260508114531 50 0 1.7 4.3 0.00 0.00 0.00 58 1009.8
20260508113028 48 350 0.0 2.6 0.00 0.00 0.00 56 1009.9
20260508111524 47 348 2.6 3.5 0.00 0.00 0.00 57 1009.8
20260508110020 47 324 1.7 2.6 0.00 0.00 0.00 60 1009.7
20260508104517 47 356 1.7 2.6 0.00 0.00 0.00 58 1009.6
20260508103013 46 332 1.7 4.3 0.00 0.00 0.00 59 1009.8
20260508101511 46 339 2.6 3.5 0.00 0.00 0.00 57 1009.1
20260508100009 46 291 0.9 3.5 0.00 0.00 0.00 56 1009.0
20260508094506 46 319 1.7 2.6 0.00 0.00 0.00 58 1009.0
20260508093003 45 300 0.0 3.5 0.00 0.00 0.00 59 1009.1
20260508091501 46 319 1.7 4.3 0.00 0.00 0.00 57 1008.6
20260508085958 45 325 0.9 3.5 0.00 0.00 0.00 58 1008.7
20260508084454 45 11 0.9 3.5 0.00 0.00 0.00 58 1008.7
20260508082950 45 349 0.9 4.3 0.00 0.00 0.00 59 1008.6
20260508081447 46 318 2.6 2.6 0.00 0.00 0.00 57 1008.3
20260508075944 46 340 2.6 5.2 0.00 0.00 0.00 55 1008.2
20260508074442 46 332 3.5 4.3 0.00 0.00 0.00 55 1007.9
20260508072939 47 328 2.6 3.5 0.00 0.00 0.00 54 1007.3
20260508071437 47 337 0.9 4.3 0.00 0.00 0.00 53 1007.5
20260508065935 47 212 0.9 2.6 0.00 0.00 0.00 52 1007.4
20260508064433 48 15 0.0 4.3 0.00 0.00 0.00 51 1007.3
20260508062931 49 359 4.3 5.2 0.00 0.00 0.00 50 1006.8
20260508061429 49 24 0.0 3.5 0.00 0.00 0.00 50 1006.9
20260508055925 49 342 2.6 4.3 0.00 0.00 0.00 50 1007.1
20260508054422 50 346 3.5 5.2 0.00 0.00 0.00 49 1006.8
20260508052919 50 331 3.5 3.5 0.00 0.00 0.00 48 1007.1
20260508051414 51 351 6.1 7.8 0.00 0.00 0.00 46 1007.0
20260508045909 52 319 7.8 10.4 0.00 0.00 0.00 44 1007.1
20260508044407 52 326 3.5 5.2 0.00 0.00 0.00 45 1007.3
20260508042902 52 0 1.7 8.7 0.00 0.00 0.00 44 1007.2
20260508041359 53 324 7.8 10.4 0.00 0.00 0.00 43 1007.2
20260508035856 53 32 3.5 8.7 0.00 0.31 0.31 43 1007.1
20260508034353 53 351 4.3 7.0 0.00 0.31 0.31 42 1007.1
20260508032851 53 310 10.4 10.4 0.00 0.31 0.31 42 1007.3
20260508031348 53 357 2.6 5.2 0.00 0.31 0.31 43 1007.3
20260508025844 53 299 4.3 9.6 0.00 0.31 0.31 42 1007.2
20260508024340 54 302 5.2 8.7 0.00 0.31 0.31 42 1007.5
20260508022836 53 334 7.0 11.3 0.00 0.31 0.31 42 1007.4
20260508021331 54 315 4.3 7.0 0.00 0.31 0.31 42 1007.5
20260508015828 54 322 0.0 13.0 0.00 0.31 0.31 41 1007.6
20260508014325 55 289 4.3 9.6 0.00 0.31 0.31 42 1007.6
20260508012825 55 19 1.7 6.1 0.00 0.31 0.31 41 1007.4
20260508011323 55 328 2.6 10.4 0.00 0.31 0.31 43 1007.4
20260508005821 55 335 4.3 7.0 0.00 0.31 0.31 42 1007.1
20260508004316 56 354 3.5 5.2 0.00 0.31 0.31 41 1007.0
20260508002812 57 321 1.7 7.8 0.00 0.31 0.31 40 1006.9
20260508001307 57 312 0.0 6.1 0.00 0.31 0.31 39 1006.2
20260507235802 57 16 2.6 7.8 0.00 0.31 0.31 40 1006.2
20260507234258 58 343 4.3 13.0 0.00 0.31 0.31 38 1005.8
20260507232756 59 320 7.8 16.5 0.00 0.31 0.31 38 1005.6
20260507231252 61 326 7.0 11.3 0.00 0.31 0.31 36 1005.5
20260507225751 62 320 0.0 10.4 0.00 0.31 0.31 34 1005.3
20260507224246 63 313 5.2 9.6 0.00 0.31 0.31 35 1005.1
20260507222742 64 345 8.7 13.0 0.00 0.31 0.31 35 1005.1
20260507221237 64 355 5.2 13.9 0.00 0.31 0.31 33 1004.9
20260507215734 64 241 1.7 16.5 0.00 0.31 0.31 33 1004.9
20260507214232 65 315 3.5 11.3 0.00 0.31 0.31 32 1004.8
20260507212732 64 352 6.1 12.2 0.00 0.31 0.31 31 1004.5
20260507211227 65 302 6.1 10.4 0.00 0.31 0.31 30 1004.6
20260507205724 65 328 3.5 10.4 0.00 0.31 0.31 30 1004.6
20260507204221 65 331 2.6 10.4 0.00 0.31 0.31 31 1004.4
20260507202717 66 0 1.7 7.8 0.00 0.31 0.31 32 1004.6
20260507201217 65 7 7.0 14.8 0.00 0.31 0.31 32 1004.4
20260507195712 68 270 0.0 6.1 0.00 0.31 0.31 30 1004.4
20260507194208 67 299 3.5 11.3 0.00 0.31 0.31 33 1004.6
20260507192704 67 254 5.2 6.1 0.00 0.31 0.31 34 1004.8
20260507191200 67 329 2.6 5.2 0.00 0.31 0.31 32 1005.2
20260507185659 67 66 3.5 13.0 0.00 0.31 0.31 32 1004.9
20260507184157 64 103 1.7 8.7 0.00 0.31 0.31 35 1005.3
20260507182653 64 336 7.8 13.9 0.00 0.31 0.31 34 1005.5
20260507181154 63 342 2.6 13.9 0.00 0.31 0.31 39 1006.0
20260507175649 65 3 2.6 5.2 0.00 0.31 0.31 40 1006.0
20260507174147 64 194 1.7 11.3 0.00 0.31 0.31 45 1005.9
20260507172643 62 349 5.2 12.2 0.00 0.31 0.31 42 1005.9
20260507171138 61 321 7.8 11.3 0.00 0.31 0.31 43 1006.1
20260507165633 61 315 4.3 19.1 0.00 0.31 0.31 43 1006.5
20260507164129 62 312 1.7 6.1 0.00 0.31 0.31 48 1006.7
20260507162625 61 303 5.2 10.4 0.00 0.31 0.31 52 1006.5
20260507161121 62 352 0.0 6.1 0.00 0.31 0.31 57 1006.9
20260507155621 60 337 4.3 12.2 0.00 0.31 0.31 66 1007.0
20260507154118 60 3 5.2 7.0 0.00 0.31 0.31 65 1007.0
20260507152613 59 6 2.6 7.0 0.00 0.31 0.31 72 1007.1
20260507151109 57 303 1.7 5.2 0.00 0.31 0.31 77 1007.3
20260507145603 57 10 0.0 5.2 0.00 0.31 0.31 80 1007.6
20260507144101 56 340 5.2 8.7 0.00 0.31 0.31 80 1007.4
20260507142601 56 328 6.1 6.1 0.00 0.31 0.31 83 1007.6
20260507141057 55 2 3.5 12.2 0.00 0.31 0.31 81 1007.2
20260507135553 55 315 3.5 7.0 0.00 0.31 0.31 87 1007.7
20260507134049 53 353 0.0 7.8 0.00 0.31 0.31 91 1007.9
20260507132545 52 296 2.6 5.2 0.00 0.31 0.31 93 1007.6
20260507131042 52 261 3.5 8.7 0.00 0.31 0.31 93 1008.0
20260507125541 52 12 0.9 2.6 0.00 0.31 0.31 97 1007.6
20260507124038 50 241 1.7 7.0 0.00 0.31 0.31 99 1007.9
20260507122533 50 97 0.9 4.3 0.00 0.31 0.31 99 1007.8